Regional Weather Roundup
Issued by NWS Charleston, SC

Current Version | Previous Version | Graphics & Text | Print | Product List | Glossary On
Versions: 1 2 3 4 5 6 7 8 9 10 11 12 13 14 15 16 17 18 19 20 21 22 23 24 25 26 27 28 29 30 31 32 33 34 35 36 37 38 39 40 41 42 43 44 45 46 47 48 49 50
383
ASUS42 KCHS 030813
RWRCHS

REGIONAL WEATHER ROUNDUP
NATIONAL WEATHER SERVICE CHARLESTON SC
400 AM EDT TUE MAY 03 2016

NOTE: "FAIR" INDICATES FEW OR NO CLOUDS BELOW 12,000 FEET WITH NO
SIGNIFICANT WEATHER AND/OR OBSTRUCTIONS TO VISIBILITY.

NOT ALL STATIONS ARE QUALITY CONTROLLED. USE DATA WITH CAUTION...
ESPECIALLY DEWPOINT OBSERVATIONS.

SCZ027-030-031-034>040-042>050-030900-
...SOUTHEAST SOUTH CAROLINA...

CITY           SKY/WX    TMP DP  RH WIND       PRES   REMARKS
N CHARLESTON   CLOUDY    73  68  84 S9        29.88F
WATERFRONT PRK   N/A     72  69  90 S8        29.88F
MOUNT PLEASANT FAIR      72  68  88 S13       29.89F
JOHNS ISLAND   CLOUDY    73  72  94 S8        29.89F
PINOPOLIS        N/A     75  72  88 S7        29.79F
MONCKS CORNER  CLOUDY    70  66  88 S6        29.88S
SUMMERVILLE    PTSUNNY   72  72 100 S6        29.89F
BEAUFORT MCAS  CLOUDY    75  72  90 S8        29.88F
BEAUFORT ARPT  CLOUDY    73  72  94 SW7       29.88F
HILTON HEAD IS CLOUDY    75  75 100 S8        29.89F
WALTERBORO     CLOUDY    73  73 100 S7        29.88F
ALLENDALE      CLOUDY    72  72 100 CALM      29.88S

...SOUTHERN MIDLANDS AND PEE DEE...

CITY           SKY/WX    TMP DP  RH WIND       PRES   REMARKS
GEORGETOWN     PTSUNNY   73  70  88 SW13G21   29.90R THUNDER
KINGSTREE      CLOUDY    72  68  88 CALM      29.88S
ORANGEBURG     CLOUDY    70  68  93 CALM      29.88F
BARNWELL       PTSUNNY   72  72 100 CALM      29.89F
AIKEN          RAIN      64  63  94 SW3       29.91F
MANNING        CLOUDY    72  70  94 SW7       29.88S
COLUMBIA       CLOUDY    68  65  90 CALM      29.87F
SUMTER         NOT AVBL
FLORENCE       TSTM      68  65  90 N12       29.87F FOG
MYRTLE BEACH   CLOUDY    73  64  73 S12       29.90S
N MYRTLE BEACH CLOUDY    73  68  84 S14       29.88S

$$

GAZ063-065-086>088-099>101-113>116-118-119-134>141-150-030900-
...SOUTHEAST GEORGIA...

CITY           SKY/WX    TMP DP  RH WIND       PRES   REMARKS
SAVANNAH ARPT  CLOUDY    73  71  93 S7        29.88F
HUNTER AAF     NOT AVBL
FORT STEWART   NOT AVBL
STATESBORO     CLOUDY    74  74 100 CALM      29.88S
SYLVANIA       CLOUDY    72  72 100 CALM      29.89S FOG
CLAXTON        FAIR      70  70 100 CALM      29.89S FOG

...CSRA...CENTRAL AND FAR SOUTHEAST GEORGIA...

CITY           SKY/WX    TMP DP  RH WIND       PRES   REMARKS
THOMSON          N/A     69  69 100 CALM      29.92
AUGUSTA-BUSH   TSTM      67  67 100 S5        29.88S FOG
AUGUSTA-DANIEL LGT RAIN  68  65  90 SE3       29.88F
SWAINSBORO     FAIR      70  68  94 CALM      29.90F
VIDALIA        CLOUDY    70  68  94 CALM      29.89S
EASTMAN        PTSUNNY  N/A N/A N/A CALM      29.92S
HAZLEHURST     PTSUNNY   73  73 100 SW5       29.89S
ALMA           MOCLDY    70  69  97 CALM      29.90R
WAYCROSS       CLOUDY    70  69  95 SW6       29.91R
JESUP          FAIR      72  72 100 CALM      29.89F
BAXLEY         CLOUDY    72  72 100 CALM      29.90R
BRUNSWICK      PTCLDY    77  72  83 S6        29.90F
SAINT SIMONS   MOCLDY    74  73  97 SW8       29.89F

$$

SCZ027-028-034-036>038-045-046-048>050-GAZ119-141-030900-
...LAKE AND SUPPLEMENTAL COASTAL OBSERVATIONS...

STATION/POSITION TIME  TEMP    WIND        PRES    WAVE   SWELL
                       AIR SEA DIR/SP/G            HT/PER HT/PER/DIR
                 (UTC) (F)     (DEG/KT/KT) (MB)    (FT/S) (FT/S/D)
WINYAH BAY       0645   74     200/  9     1012.0
LAKE MURRAY      0700   69     200/ 10/ 12 1011.2F
ACE BASIN NERRS  NOT AVBL
FORT PULASKI     0700   75 75  190/  6/ 10 1012.6F
SAPELO ISLAND    0700   74     170/  7     1012.0F

$$

ANZ835-935-AMZ111-154-330-350-352-354-370-450-454-472-030900-
...C-MAN AND BUOY OBSERVATIONS...

STATION/POSITION TIME  TEMP    WIND        PRES    WAVE   SWELL
                       AIR SEA DIR/SP/G            HT/PER HT/PER/DIR
                 (UTC) (F)     (DEG/KT/KT) (MB)    (FT/S) (FT/S/D)
BUOY 41004       0750   76 75  210/ 14/ 16 1011.8F   4/ 6   2/ 9
BUOY 41008       NOT AVBL
FOLLY BEACH CMAN 0700   71     170/ 15/ 17 1012.8F
CAPERS NEARSHORE 0708   72 74  210/ 19/ 23 1012.3F
FRIPP NEARSHORE  0708   75 72  210/ 14/ 17 1011.3F


STATION/POSITION TIME  TEMP    WIND        PRES    WAVE   SWELL
                       AIR SEA DIR/SP/G            HT/PER HT/PER/DIR
                 (UTC) (F)     (DEG/KT/KT) (MB)    (FT/S) (FT/S/D)
5E ST. MARYS GA  0721      73                N/A     4/ 5
FRYING PAN BUOY  0700   73 73  190/ 14/ 17 1012.6F
BUOY 41025       0750   75 73  210/ 19/ 23 1011.5F   4/10   2/ 70/10
CAPE LOOKOUT NC  0700   71     200/ 14/ 16 1011.9F
BUOY 41002       0750   74 74  160/ 17/ 19 1015.7F   4/10   3/ 40/10
BUOY 41010       0720   78 79  170/ 17/ 21 1015.0F
ST AUGUSTINE FL  0800   73 72  220/  7/  9 1014.1R


$$




USA.gov is the U.S. government's official web portal to all federal, state and local government web resources and services.